[[{"header":{"parameterUnit":"m.s-1","parameterCategory":1,"la1":30.2992,"la2":30.254,"lo1":-89.0895,"lo2":-89.0443,"dy":0.0025,"dx":0.0025,"nx":19,"ny":19,"refTime":"2026-03-20T09:00:00:Z","depth":0,"parameterNumber":2,"parameterNumberName":"U-component_of_WINDS"},"data":[0,0,0,3.2478,3.2482,3.269,3.269,3.2948,3.295,0,0,0,0,0,0,0,0,0,0,0,3.241,3.2411,3.2477,3.2482,3.2689,3.269,3.2947,3.295,0,0,0,0,0,0,0,0,0,0,0,3.2409,3.2411,3.2413,3.2483,3.2689,3.2691,3.2947,3.2794,0,0,0,0,0,0,0,0,0,0,3.2594,3.2524,3.241,3.2413,3.2484,3.2689,3.2691,3.2786,3.2803,3.285,0,3.2887,0,3.2922,3.2966,3.2967,0,0,0,3.2488,3.251,3.2571,3.2413,3.2486,3.2689,3.2598,3.2796,3.2815,3.2872,3.2891,3.2901,3.2927,3.2968,3.2969,3.3213,3.3214,0,0,3.2477,3.2444,3.2558,3.2583,3.2549,3.2591,3.2604,3.2808,3.2827,3.2892,3.2907,3.2931,3.297,3.2971,3.3212,3.3213,0,0,0,3.244,3.2436,3.2493,3.2572,3.261,3.2597,3.2612,3.2818,3.2839,3.291,3.2934,3.2971,3.2974,3.3211,3.3213,3.3223,0,0,0,3.2433,3.2414,3.2487,3.2469,3.2606,3.2716,3.2618,3.2825,3.2849,3.2933,3.2971,3.2976,3.3211,3.3212,3.3221,3.3235,0,0,0,3.2399,3.241,3.2438,3.2467,3.2555,3.2714,3.2747,3.2831,3.2864,3.2967,3.2977,3.321,3.3212,3.3219,3.3231,3.3289,0,0,0,3.2352,3.2445,3.2437,3.255,3.2553,3.2718,3.2746,3.2871,3.2961,3.2972,3.3211,3.3213,3.3218,3.3229,3.3287,3.3332,3.3348,0,0,3.2451,3.2456,3.2525,3.2524,3.2682,3.2689,3.285,3.2964,3.3005,3.3142,3.3149,3.3222,3.3231,3.3289,3.3446,3.3457,0,0,0,3.2546,3.2595,3.2644,3.2727,3.2815,3.2893,3.2985,3.3028,3.3145,3.3068,3.3259,3.3266,3.3301,3.3324,3.3335,3.3367,3.3222,3.3221,3.3221,3.264,3.2685,3.2803,3.2873,3.2953,3.3048,3.3118,3.3192,3.3216,3.326,3.3301,3.339,3.3416,3.3424,3.3458,3.3328,3.3328,3.3328,3.3328,3.279,3.2867,3.2895,3.3019,3.3067,3.3172,3.3267,3.328,3.3386,3.3363,3.3397,3.3368,3.3436,3.3468,3.333,3.3329,3.3329,3.3329,3.3329,3.2858,3.2902,3.2951,3.3075,3.3166,3.3235,3.3335,3.3376,3.3415,3.3448,3.3496,3.3496,3.3502,3.3467,3.3468,3.3468,3.3468,3.3469,3.3469,3.2909,3.2963,3.3042,3.3142,3.32,3.3282,3.3377,3.3437,3.3513,3.3535,3.3536,3.3555,3.3434,3.3402,3.3474,3.3473,3.3472,3.3472,3.3472,3.3046,3.3021,3.3142,3.32,3.3321,3.3409,3.3459,3.3576,3.3631,3.3679,3.3692,3.3595,3.3603,3.3595,3.357,3.3681,3.3681,3.3681,3.3681,3.3104,3.3111,3.3243,3.3334,3.3427,3.3484,3.3621,3.3695,3.3769,3.3806,3.3796,3.3765,3.3755,3.377,3.3759,3.3736,3.3886,3.3886,3.3887,3.3191,3.3209,3.3317,3.3386,3.3484,3.3567,3.3697,3.3801,3.388,3.3896,3.3837,3.3828,3.3779,3.3761,3.3776,3.3757,3.3716,0,0]},{"header":{"parameterUnit":"m.s-1","parameterCategory":1,"la1":30.2992,"la2":30.254,"lo1":-89.0895,"lo2":-89.0443,"dy":0.0025,"dx":0.0025,"nx":19,"ny":19,"refTime":"2026-03-20T09:00:00:Z","depth":0,"parameterNumber":3,"parameterNumberName":"V-component_of_WINDS"},"data":[0,0,0,2.0091,2.0091,2.0137,2.0137,2.0178,2.0178,0,0,0,0,0,0,0,0,0,0,0,2.0069,2.0069,2.009,2.0091,2.0137,2.0137,2.0178,2.0178,0,0,0,0,0,0,0,0,0,0,0,2.0069,2.0069,2.0069,2.0091,2.0137,2.0137,2.0178,2.0149,0,0,0,0,0,0,0,0,0,0,2.0108,2.0081,2.0069,2.0069,2.0092,2.0137,2.0137,2.0148,2.0151,2.0151,0,2.015,0,2.0165,2.018,2.018,0,0,0,2.0097,2.0078,2.0098,2.0069,2.0092,2.0136,2.0118,2.015,2.0153,2.0154,2.0151,2.0153,2.0165,2.018,2.018,2.0162,2.0162,0,0,2.0094,2.0072,2.0095,2.0099,2.0094,2.0116,2.0119,2.0152,2.0146,2.0151,2.0154,2.0166,2.018,2.018,2.0163,2.0162,0,0,0,2.0083,2.007,2.009,2.0097,2.0107,2.0118,2.0121,2.0145,2.0153,2.0155,2.0167,2.018,2.0181,2.0163,2.0163,2.0123,0,0,0,2.0082,2.0064,2.0088,2.0075,2.0106,2.0127,2.0112,2.015,2.0155,2.0166,2.018,2.0181,2.0164,2.0163,2.0125,2.0108,0,0,0,2.0069,2.0063,2.0067,2.0074,2.0093,2.0127,2.0137,2.0152,2.0162,2.018,2.0181,2.0164,2.0163,2.0127,2.0111,2.0095,0,0,0,2.0048,2.0032,2.0066,2.0052,2.0092,2.0103,2.0137,2.0146,2.0157,2.0181,2.0164,2.0163,2.0128,2.0113,2.0097,2.0078,2.0068,0,0,2.0015,2.0027,2.0021,2.0052,2.0051,2.0098,2.009,2.0121,2.0143,2.0154,2.0154,2.0125,2.0111,2.0096,2.0023,2.0015,0,0,0,2.0003,1.9998,2.0002,2.0012,2.0035,2.0053,2.0087,2.0098,2.0109,2.0145,2.0116,2.0109,2.0101,2.0092,2.0085,2.0079,2.0158,2.0158,2.0158,1.9925,1.9953,1.9944,1.9977,1.9985,2.002,2.0028,2.0048,2.0075,2.0067,2.0071,2.0023,2.0012,2.0007,2.0,2.0064,2.0064,2.0063,2.0063,1.9879,1.9875,1.9909,1.9913,1.9941,1.9943,1.9974,1.9992,1.9997,2.0024,2.0018,2.0043,1.9998,1.9993,2.0061,2.0061,2.0061,2.0062,2.0062,1.983,1.9833,1.9847,1.9862,1.9869,1.9903,1.9905,1.9931,1.9956,1.995,1.9955,1.9956,1.9958,1.9951,1.9951,1.9951,1.9951,1.995,1.995,1.9774,1.979,1.979,1.9811,1.9819,1.9833,1.9865,1.9873,1.9889,1.9908,1.9908,1.9933,1.9989,2.0002,1.9948,1.9948,1.9949,1.9949,1.9949,1.9714,1.9732,1.9731,1.9739,1.9764,1.9768,1.9802,1.9815,1.9826,1.9825,1.9851,1.9889,1.9903,1.9908,1.9919,1.9847,1.9847,1.9847,1.9847,1.9672,1.9682,1.9685,1.9696,1.9709,1.9738,1.9733,1.9756,1.9783,1.9791,1.9805,1.9821,1.9826,1.9837,1.9844,1.9854,1.9767,1.9767,1.9767,1.9636,1.9648,1.9639,1.9667,1.9688,1.9704,1.9699,1.9708,1.9742,1.9765,1.9796,1.98,1.9827,1.9834,1.9857,1.9868,1.9887,0,0]}]]